Terminal Aerodrome Forecast
Issued by NWS Wilmington, OH

Current Version | Previous Version | Text Only | Print | Product List | Glossary Off
Versions: 1 2 3 4 5 6 7 8 9 10 11 12 13 14 15 16 17 18 19 20 21 22 23 24 25

000
FTUS41 KILN 240300 AAA
TAFDAY
TAF AMD
KDAY 240345Z 2404/2424 17015G25KT 4SM -SHRA BR BKN008 OVC012
     FM240800 21015G25KT P6SM VCSH BKN008 OVC012
     FM241200 21018G32KT 5SM -SHRA BR SCT012 OVC022
     FM241600 24026G40KT 5SM -SHRA BR SCT012 OVC022
     FM241800 24024G36KT P6SM VCSH BKN025=

USA.gov is the U.S. government's official web portal to all federal, state and local government web resources and services.